COSMOS 2547 (705K)

Last updated on Fri Oct 24 2025 00:03:24 GMT+0000 (Coordinated Universal Time)

1 46805U 20075A 25295.49728860 .00000026 00000+0 00000+0 0 9990 2 46805 64.5959 200.4069 0007238 234.8221 125.1678 2.13099903 38845
UTC large
Height (km)
Speed (km/s)
/
Latitude / Longitude
Inclination (degrees)
Orbital Period (minutes)
Azimuth
Elevation
Range (km)
Doppler Factor

Next 0 passes for location: London (51.5072 / 0.1276)

Sorry there are no passes over London.